sat.trackr.live / text

‹ back to catalog

CENTISPACE-2 S3

NORAD 68352 · 2026-060C

PAYLOAD ACTIVE UNKNOWN

§ Identity

Operator
Country
PRC
Launch date
2026-03-22
Launch site
YSLA
Launch vehicle
Mass (kg)
RCS (m²)

External: N2YO · Heavens-Above · Gunter

§ Orbital elements

Epoch: 2026-05-25T09:01:42.592224Z

Period
97.74 min
Inclination
54.9797°
Eccentricity
0.0010420
Mean motion
14.73368265 rev/d
Perigee alt
643.0 km
Apogee alt
657.7 km
Semi-major
7,028.5 km
B*
2.5658e-5
RAAN
129.0816°
Arg perigee
79.1040°
Mean anomaly
281.1130°
Rev number
940

§ Raw data

CENTISPACE-2 S31 68352U 26060C   26145.37618741 -.00000039  00000+0  25658-4 0  99952 68352  54.9797 129.0816 0010420  79.1040 281.1130 14.73368265  9406

JSON: /api/v1/satellites/68352 · /tle

For live sub-satellite position, see the globe view (requires WebGL).

§ Visibility from observer

Set your observer location to see the next 7 days of passes ≥ 10°. The values pass through the URL so the page stays shareable.

No JS? Fill the form by hand. The geolocation button needs JavaScript.